Location: Tamazert
(32.6352°N, 5.2072°W)
Time: 07:57:53
(UTC+00:00)

Tiros 1 despin weight - Pass Details

Date: 14 October 2022
Orbit: 590 x 637 km, 48.2° (Epoch: 28 November)

Event Time Altitude Azimuth Distance (km) Brightness Sun altitude
Rises 14:36:10 0° 308° (NW) 2,827 ? 35.8°
Reaches altitude 10° 14:40:39 10° 350° (N) 1,937 ? 35.1°
Maximum altitude 14:41:25 10° 360° (N) 1,915 ? 35.0°
Drops below altitude 10° 14:42:11 10° 10° (N) 1,942 ? 34.8°
Sets 14:46:43 0° 52° (NE) 2,860 ? 34.1°
